This demonstration page uses our WeatherBlox Daily Observations layout. Learn more.

Left ArrowRight Arrow

40.92945, -100.16068

Hourly Observations for September 23, 2019

Temp ( °F °C ) Dew Point ( °F °C ) Humidity (%) Winds ( mph kmh ) Pressure ( in mb ) Visibility ( mi km ) Precip ( " mm )
12:15 am 00:15 Clear 53 11.6 51 10.7 94 94 Calm 30.04 1017 10 16 0.00 0.00
12:35 am 00:35 Clear 53 11.9 52 10.9 94 94 S 3 6 30.03 1017 10 16 0.00 0.00
12:55 am 00:55 Clear 53 11.9 51 10.4 91 91 Calm 30.03 1017 10 16 0.00 0.00
1:15 am 01:15 Clear 51 10.8 50 10.1 95 95 Calm 30.04 1017 10 16 0.00 0.00
1:35 am 01:35 Clear 50 10 49 9.6 97 97 Calm 30.05 1018 10 16 0.00 0.00
1:55 am 01:55 Clear 50 9.8 49 9.6 99 99 Calm 30.05 1018 10 16 0.00 0.00
2:15 am 02:15 Clear 50 10 49 9.5 97 97 Calm 30.06 1018 10 16 0.00 0.00
2:35 am 02:35 Clear 49 9.5 49 9.3 99 99 Calm 30.07 1018 10 16 0.00 0.00
2:55 am 02:55 Clear 53 11.4 49 9.5 88 88 WSW 3 6 30.05 1018 10 16 0.00 0.00
3:15 am 03:15 Clear 53 11.7 49 9.6 87 87 Calm 30.05 1017 10 16 0.00 0.00
3:35 am 03:35 Clear 53 11.9 50 10 88 88 W 3 6 30.04 1017 10 16 0.00 0.00
3:55 am 03:55 Clear 51 10.3 49 9.6 95 95 W 3 6 30.05 1018 10 16 0.00 0.00
4:15 am 04:15 Clear 51 10.4 49 9.7 95 95 Calm 30.05 1018 10 16 0.00 0.00
4:35 am 04:35 Clear 49 9.6 48 8.9 95 95 Calm 30.05 1018 10 16 0.00 0.00
4:55 am 04:55 Clear 49 9.5 48 9 97 97 Calm 30.07 1018 10 16 0.00 0.00
5:15 am 05:15 Clear 48 9.1 48 9 99 99 Calm 30.06 1018 10 16 0.00 0.00
5:35 am 05:35 Clear 49 9.2 48 9 99 99 Calm 30.06 1018 10 16 0.00 0.00
5:55 am 05:55 Clear 48 9.1 48 8.8 98 98 Calm 30.06 1018 10 16 0.00 0.00
6:15 am 06:15 Clear 48 8.8 47 8.5 98 98 Calm 30.07 1018 10 16 0.00 0.00
6:35 am 06:35 Clear 48 8.9 48 8.7 99 99 Calm 30.07 1018 10 16 0.00 0.00
6:55 am 06:55 Clear 51 10.3 48 8.9 91 91 Calm 30.06 1018 10 16 0.00 0.00
7:15 am 07:15 Clear 49 9.7 47 8.5 92 92 Calm 30.06 1018 10 16 0.00 0.00
7:35 am 07:35 Sunny 51 10.3 48 9.1 92 92 Calm 30.06 1018 10 16 0.00 0.00
7:55 am 07:55 Sunny 51 10.5 48 9 91 91 Calm 30.06 1018 10 16 0.00 0.00
8:15 am 08:15 Sunny 51 10.7 49 9.3 91 91 Calm 30.06 1018 10 16 0.00 0.00
8:35 am 08:35 Sunny 55 12.9 51 10.7 87 87 Calm 30.04 1017 10 16 0.00 0.00
8:55 am 08:55 Sunny 58 14.4 53 11.5 83 83 Calm 30.04 1017 10 16 0.00 0.00
9:15 am 09:15 Sunny 60 15.3 53 11.6 79 79 Calm 30.03 1017 7 11 0.00 0.00
9:35 am 09:35 Sunny 63 17.1 54 12 72 72 WSW 6 9 30.02 1016 10 16 0.00 0.00
9:55 am 09:55 Sunny 65 18.2 53 11.8 66 66 W 5 7 30.01 1016 10 16 0.00 0.00
10:15 am 10:15 Sunny 67 19.5 55 12.5 64 64 WSW 7 11 30.01 1016 10 16 0.00 0.00
10:35 am 10:35 Sunny 69 20.5 55 12.5 60 60 WSW 9 15 30.00 1016 10 16 0.00 0.00
10:55 am 10:55 Sunny 71 21.6 55 12.9 58 58 WSW 12 19 29.98 1015 10 16 0.00 0.00
11:15 am 11:15 Sunny 72 22.3 56 13.1 56 56 WSW 10 17 29.97 1015 10 16 0.00 0.00
11:35 am 11:35 Sunny 74 23.4 56 13.3 53 53 WSW 13 20 29.96 1015 10 16 0.00 0.00
11:55 am 11:55 Sunny 75 23.7 56 13.4 53 53 WSW 10 17 29.95 1014 7 11 0.00 0.00
12:15 pm 12:15 Sunny 76 24.3 56 13.5 51 51 SW 13 20 29.95 1014 10 16 0.00 0.00
12:35 pm 12:35 Sunny 77 24.9 57 13.7 50 50 SSW 15 24 29.93 1014 10 16 0.00 0.00
12:55 pm 12:55 Sunny 77 25.1 57 13.7 49 49 SSW 15 24 29.93 1014 10 16 0.00 0.00
1:15 pm 13:15 Sunny 78 25.8 58 14.3 49 49 S 16 26 29.91 1013 10 16 0.00 0.00
1:35 pm 13:35 Sunny 80 26.9 57 13.8 45 45 SW 12 19 29.89 1012 10 16 0.00 0.00
1:55 pm 13:55 Sunny 81 27.2 56 13.6 43 43 SSW 14 22 29.88 1012 10 16 0.00 0.00
2:15 pm 14:15 Sunny 81 27.4 56 13.5 42 42 SSW 14 22 29.87 1012 10 16 0.00 0.00
2:35 pm 14:35 Sunny 82 28 56 13.6 41 41 SW 14 22 29.86 1011 10 16 0.00 0.00
2:55 pm 14:55 Sunny 83 28.1 56 13.4 40 40 SSW 13 20 29.84 1011 10 16 0.00 0.00
3:15 pm 15:15 Sunny 83 28.2 56 13.4 40 40 SSW 14 22 29.83 1010 7 11 0.00 0.00
3:35 pm 15:35 Sunny 83 28.3 56 13.5 40 40 SSW 14 22 29.83 1010 10 16 0.00 0.00
3:55 pm 15:55 Sunny 84 29.1 57 13.7 39 39 SSW 16 26 29.82 1010 10 16 0.00 0.00
4:15 pm 16:15 Sunny 83 28.3 56 13.3 40 40 SSW 12 19 29.82 1010 7 11 0.00 0.00
4:35 pm 16:35 Hazy 84 28.7 56 13.6 40 40 SSW 15 24 29.82 1010 3 4 0.00 0.00
4:55 pm 16:55 Partly Cloudy 83 28.5 55 13 38 38 S 13 20 29.82 1010 10 16 0.00 0.00
5:15 pm 17:15 Sunny 84 29 55 12.9 37 37 SSW 13 20 29.81 1009 10 16 0.00 0.00
5:35 pm 17:35 Sunny 83 28.2 55 12.9 39 39 S 12 19 29.81 1010 10 16 0.00 0.00
5:55 pm 17:55 Sunny 81 27.3 55 13 41 41 SSW 14 22 29.82 1010 10 16 0.00 0.00
6:15 pm 18:15 Sunny 80 26.8 57 14 45 45 S 10 17 29.83 1010 10 16 0.00 0.00
6:35 pm 18:35 Sunny 78 25.7 58 14.6 50 50 S 9 15 29.83 1010 10 16 0.00 0.00
6:55 pm 18:55 Sunny 76 24.7 59 14.9 55 55 SSE 8 13 29.84 1011 10 16 0.00 0.00
7:15 pm 19:15 Sunny 74 23.4 59 15.2 60 60 SSE 7 11 29.85 1011 10 16 0.00 0.00
7:35 pm 19:35 Sunny 73 22.7 59 15 62 62 SSE 7 11 29.86 1011 10 16 0.00 0.00
7:55 pm 19:55 Clear 71 21.8 59 14.8 65 65 SSE 6 9 29.87 1011 10 16 0.00 0.00
8:15 pm 20:15 Clear 70 21.2 58 14.6 66 66 SSE 6 9 29.87 1012 10 16 0.00 0.00
8:35 pm 20:35 Clear 69 20.3 58 14.6 70 70 SSE 5 7 29.88 1012 10 16 0.00 0.00
8:55 pm 20:55 Clear 67 19.7 58 14.6 73 73 SSE 6 9 29.88 1012 10 16 0.00 0.00
9:15 pm 21:15 Clear 66 19.1 58 14.5 75 75 SSE 10 17 29.89 1012 10 16 0.00 0.00
9:35 pm 21:35 Clear 66 19.1 58 14.3 74 74 SE 6 9 29.89 1012 10 16 0.00 0.00
9:55 pm 21:55 Clear 67 19.4 56 13.5 69 69 SE 5 7 29.89 1012 10 16 0.00 0.00
10:15 pm 22:15 Clear 67 19.2 55 13 67 67 SE 6 9 29.89 1012 10 16 0.00 0.00
10:35 pm 22:35 Clear 66 18.7 55 13 70 70 SE 7 11 29.89 1012 10 16 0.00 0.00
10:55 pm 22:55 Clear 65 18.2 55 12.6 70 70 SE 7 11 29.90 1012 10 16 0.00 0.00
11:15 pm 23:15 Clear 66 18.9 54 12.2 65 65 SE 8 13 29.89 1012 10 16 0.00 0.00
11:35 pm 23:35 Clear 65 18.1 54 12.2 69 69 SSE 7 11 29.89 1012 10 16 0.00 0.00
11:55 pm 23:55 Clear 65 18.5 54 12 66 66 SSE 8 13 29.89 1012 10 16 0.00 0.00

Powered by AerisWeather